User: anonymous   Login
Location: Darlington Observatory
(36.4817°N, 105.8156°W)
Time: 05:05:32
(UTC-06:00)
Language:

NOSS 3-3 (A) - Orbit

View from above orbital plane
View from above orbital plane
View from above satellite
View from above satellite

Ground track
Ground track

The orbit data is extracted from the following two-line orbital elements,

1 28537U 05004A   17147.08002055 0.00000000  00000-0  00000-0 0    07
2 28537  63.4244 242.2197 0264000 358.5872   1.4128 13.40730760    04
Epoch (UTC): 27 May 2017 01:55:13
Eccentricity: 0.0264000
inclination: 63.4244°
perigee height: 909 km
apogee height: 1304 km
right ascension of ascending node: 242.2197°
argument of perigee: 358.5872°
revolutions per day: 13.40730760
mean anomaly at epoch: 1.4128°
orbit number at epoch: 0

The dashed part of the orbit path shows where the satellite is in the earth's shadow,  

DLR